TimeCST,TemperatureF,Dew PointF,Humidity,Sea Level PressureIn,VisibilityMPH,Wind Direction,Wind SpeedMPH,Gust SpeedMPH,PrecipitationIn,Events,Conditions,WindDirDegrees,DateUTC
12:15 AM,20.3,14.9,80,30.03,10.0,SSW,6.9,-,N/A,,Clear,210,2014-01-19 06:15:00
12:35 AM,19.0,13.8,80,30.02,10.0,SSE,4.6,-,N/A,,Clear,160,2014-01-19 06:35:00
12:55 AM,17.2,13.1,84,30.00,10.0,South,6.9,-,N/A,,Clear,190,2014-01-19 06:55:00
1:15 AM,18.1,13.6,83,29.99,10.0,South,4.6,-,N/A,,Clear,180,2014-01-19 07:15:00
1:35 AM,21.4,16.7,82,29.99,10.0,SSW,8.1,-,N/A,,Clear,200,2014-01-19 07:35:00
1:55 AM,21.4,16.5,82,29.99,10.0,SSW,6.9,-,N/A,,Clear,210,2014-01-19 07:55:00
2:15 AM,22.8,17.6,80,29.98,10.0,SSW,6.9,-,N/A,,Clear,210,2014-01-19 08:15:00
2:35 AM,23.4,18.1,80,29.97,10.0,SSW,11.5,-,N/A,,Clear,210,2014-01-19 08:35:00
2:55 AM,23.9,18.7,80,29.94,10.0,SSW,16.1,-,N/A,,Clear,210,2014-01-19 08:55:00
3:15 AM,23.9,18.5,80,29.93,10.0,SW,15.0,-,N/A,,Clear,220,2014-01-19 09:15:00
3:35 AM,24.6,19.4,81,29.93,10.0,SW,16.1,20.7,N/A,,Clear,220,2014-01-19 09:35:00
3:55 AM,26.6,20.3,77,29.91,10.0,SSW,13.8,-,N/A,,Clear,210,2014-01-19 09:55:00
4:15 AM,27.3,20.3,75,29.91,10.0,SW,16.1,21.9,N/A,,Clear,220,2014-01-19 10:15:00
4:35 AM,28.0,20.8,74,29.90,10.0,SW,19.6,23.0,N/A,,Clear,220,2014-01-19 10:35:00
4:55 AM,28.8,20.8,72,29.89,10.0,SW,16.1,21.9,N/A,,Clear,230,2014-01-19 10:55:00
5:15 AM,28.4,20.3,72,29.89,10.0,SW,10.4,-,N/A,,Clear,220,2014-01-19 11:15:00
5:35 AM,27.5,20.1,74,29.87,10.0,SW,6.9,-,N/A,,Clear,220,2014-01-19 11:35:00
5:55 AM,30.2,21.0,69,29.85,10.0,SW,12.7,19.6,N/A,,Clear,230,2014-01-19 11:55:00
6:15 AM,30.9,20.3,65,29.85,10.0,WSW,10.4,-,N/A,,Clear,240,2014-01-19 12:15:00
6:35 AM,32.2,19.9,61,29.84,10.0,SW,15.0,23.0,N/A,,Clear,230,2014-01-19 12:35:00
6:55 AM,32.9,19.4,58,29.84,10.0,WSW,18.4,-,N/A,,Clear,240,2014-01-19 12:55:00
7:15 AM,32.4,19.2,58,29.84,10.0,SW,17.3,24.2,N/A,,Clear,230,2014-01-19 13:15:00
7:35 AM,32.0,19.0,59,29.82,10.0,WSW,15.0,-,N/A,,Clear,240,2014-01-19 13:35:00
7:55 AM,32.0,18.9,58,29.82,10.0,WSW,15.0,-,N/A,,Clear,240,2014-01-19 13:55:00
8:15 AM,32.5,18.9,57,29.82,10.0,WSW,15.0,18.4,N/A,,Clear,240,2014-01-19 14:15:00
8:35 AM,34.5,19.4,54,29.81,10.0,SW,17.3,21.9,N/A,,Clear,230,2014-01-19 14:35:00
8:55 AM,35.8,19.4,51,29.81,10.0,WSW,16.1,20.7,N/A,,Clear,240,2014-01-19 14:55:00
9:15 AM,37.4,19.4,48,29.80,10.0,WSW,16.1,-,N/A,,Clear,240,2014-01-19 15:15:00
9:35 AM,39.2,19.4,45,29.81,10.0,WSW,17.3,-,N/A,,Clear,240,2014-01-19 15:35:00
9:55 AM,41.0,19.6,42,29.81,10.0,West,15.0,21.9,N/A,,Clear,260,2014-01-19 15:55:00
10:15 AM,42.4,19.0,39,29.80,10.0,West,16.1,21.9,N/A,,Clear,260,2014-01-19 16:15:00
10:35 AM,44.6,19.0,36,29.81,10.0,West,11.5,17.3,N/A,,Clear,260,2014-01-19 16:35:00
10:55 AM,46.6,18.3,32,29.81,10.0,West,12.7,-,N/A,,Clear,260,2014-01-19 16:55:00
11:15 AM,48.7,18.5,30,29.80,10.0,West,12.7,-,N/A,,Clear,260,2014-01-19 17:15:00
11:35 AM,50.9,18.5,28,29.78,10.0,WSW,11.5,-,N/A,,Clear,240,2014-01-19 17:35:00
11:55 AM,52.3,18.3,26,29.77,10.0,SW,10.4,16.1,N/A,,Clear,230,2014-01-19 17:55:00
12:15 PM,54.1,18.3,25,29.76,10.0,WSW,10.4,-,N/A,,Clear,240,2014-01-19 18:15:00
12:35 PM,55.6,18.1,23,29.75,10.0,WSW,12.7,-,N/A,,Clear,240,2014-01-19 18:35:00
12:55 PM,58.1,17.8,21,29.73,10.0,SW,13.8,-,N/A,,Clear,230,2014-01-19 18:55:00
1:15 PM,59.5,17.6,20,29.72,10.0,WSW,13.8,-,N/A,,Clear,250,2014-01-19 19:15:00
1:35 PM,60.6,17.1,18,29.71,10.0,WSW,15.0,-,N/A,,Clear,240,2014-01-19 19:35:00
1:55 PM,61.9,16.7,17,29.70,10.0,SW,13.8,18.4,N/A,,Clear,230,2014-01-19 19:55:00
2:15 PM,63.0,15.8,16,29.69,10.0,WSW,13.8,20.7,N/A,,Clear,240,2014-01-19 20:15:00
2:35 PM,63.5,15.6,16,29.69,10.0,WSW,16.1,23.0,N/A,,Clear,250,2014-01-19 20:35:00
2:55 PM,64.4,15.1,15,29.69,10.0,WSW,17.3,24.2,N/A,,Clear,240,2014-01-19 20:55:00
3:15 PM,64.9,14.4,14,29.68,10.0,WSW,18.4,23.0,N/A,,Clear,240,2014-01-19 21:15:00
3:35 PM,65.3,14.7,14,29.69,10.0,WSW,17.3,23.0,N/A,,Clear,240,2014-01-19 21:35:00
3:55 PM,65.5,14.2,14,29.68,10.0,WSW,13.8,19.6,N/A,,Clear,240,2014-01-19 21:55:00
4:15 PM,65.3,13.1,13,29.68,10.0,WSW,11.5,-,N/A,,Clear,250,2014-01-19 22:15:00
4:35 PM,64.0,13.6,14,29.69,10.0,West,11.5,-,N/A,,Clear,260,2014-01-19 22:35:00
4:55 PM,61.9,13.8,15,29.70,10.0,West,9.2,-,N/A,,Clear,260,2014-01-19 22:55:00
5:15 PM,59.0,14.5,18,29.71,10.0,WSW,8.1,-,N/A,,Clear,250,2014-01-19 23:15:00
5:35 PM,56.3,14.7,19,29.72,10.0,WSW,9.2,-,N/A,,Clear,250,2014-01-19 23:35:00
5:55 PM,54.5,12.9,19,29.72,10.0,West,11.5,-,N/A,,Clear,270,2014-01-19 23:55:00
6:15 PM,53.4,11.5,19,29.74,10.0,West,10.4,-,N/A,,Clear,280,2014-01-20 00:15:00
6:55 PM,53.4,11.3,19,29.76,10.0,NW,10.4,-,N/A,,Clear,320,2014-01-20 00:55:00
7:15 PM,51.1,12.0,21,29.78,10.0,NW,10.4,-,N/A,,Clear,310,2014-01-20 01:15:00
7:35 PM,48.9,14.0,25,29.79,10.0,NW,12.7,-,N/A,,Clear,320,2014-01-20 01:35:00
7:55 PM,48.0,15.3,27,29.80,10.0,WNW,8.1,-,N/A,,Clear,300,2014-01-20 01:55:00
8:15 PM,46.0,15.6,30,29.80,10.0,NW,8.1,-,N/A,,Clear,310,2014-01-20 02:15:00
8:35 PM,44.4,16.3,32,29.81,10.0,NW,9.2,-,N/A,,Clear,310,2014-01-20 02:35:00
8:55 PM,44.6,16.9,33,29.82,10.0,NW,9.2,-,N/A,,Clear,320,2014-01-20 02:55:00
9:15 PM,45.5,17.6,33,29.82,10.0,NW,10.4,-,N/A,,Clear,320,2014-01-20 03:15:00
9:35 PM,43.2,18.1,37,29.82,10.0,NW,9.2,-,N/A,,Clear,310,2014-01-20 03:35:00
9:55 PM,42.8,19.2,39,29.84,10.0,NW,9.2,-,N/A,,Clear,310,2014-01-20 03:55:00
10:15 PM,42.8,20.7,41,29.84,10.0,NNW,10.4,-,N/A,,Clear,330,2014-01-20 04:15:00
10:35 PM,39.6,20.7,47,29.84,10.0,NW,9.2,-,N/A,,Clear,320,2014-01-20 04:35:00
10:55 PM,38.8,20.5,48,29.85,10.0,NW,10.4,-,N/A,,Clear,320,2014-01-20 04:55:00
11:15 PM,42.1,21.7,44,29.84,10.0,NNW,9.2,-,N/A,,Clear,330,2014-01-20 05:15:00
11:35 PM,39.9,21.2,47,29.84,10.0,NNW,6.9,-,N/A,,Clear,330,2014-01-20 05:35:00
11:55 PM,38.3,21.7,51,29.84,10.0,NNW,6.9,-,N/A,,Clear,330,2014-01-20 05:55:00